Wetbulb
54.36 54.44 54.55 54.65 55.18 55.61 55.23 55.61 55.48 55.16 55.30 55.31 55.66 56.46 57.55 58.75 58.03 60.02 58.00 57.12 55.52 56.06 54.92 54.39 54.07 54.52 49.27 43.41 43.63 50.80 52.37 52.14 52.81 50.69 46.56 44.16 42.50 41.93 36.55 39.77 40.11 38.07 41.00 42.51 42.88 42.47 43.53
54.53 54.01 54.12 53.85 54.49 54.42 54.14 54.41 54.53 54.19 54.49 54.98 54.82 54.67 55.61 57.02 57.16 58.92 57.36 55.87 55.45 55.26 54.06 53.63 53.22 54.27 46.35 39.63 50.67 51.15 50.62 50.22 49.77 49.12 46.70 45.93 42.91 44.47 40.56 38.67 38.40 41.25 41.54 41.46 42.22 41.97 42.99
53.72 53.92 54.12 53.69 54.05 54.18 54.17 53.89 53.40 53.60 54.14 54.57 54.34 54.10 54.09 55.08 55.60 57.53 57.39 55.59 55.21 54.13 52.95 53.12 52.97 52.27 45.75 43.64 50.90 50.22 49.42 48.76 49.99 49.10 45.43 47.34 46.73 43.64 41.74 37.69 41.36 41.16 37.93 40.27 40.53 40.69 40.08
53.03 52.92 53.32 53.14 53.46 53.08 53.07 53.15 52.96 52.81 53.50 53.72 54.29 53.41 53.37 53.48 54.64 56.92 56.73 55.57 54.39 52.98 52.53 52.88 52.88 50.56 41.30 50.86 52.26 49.32 50.56 49.09 50.15 50.73 48.98 49.16 48.62 44.65 42.06 41.41 39.34 38.10 38.02 33.18 38.61 37.55 38.27
52.95 52.42 52.57 52.75 52.97 52.69 52.50 52.61 52.41 52.18 52.69 52.81 52.57 51.91 52.70 52.91 53.90 57.00 55.45 54.54 53.19 52.92 52.88 52.77 50.15 46.46 40.38 50.61 46.88 49.81 50.35 46.50 48.07 48.80 49.06 48.74 46.67 42.41 41.06 34.32 34.08 35.80 31.10 32.65 33.55 41.90 40.78
53.45 53.12 52.41 51.76 51.49 52.12 51.56 51.85 51.76 51.70 51.77 51.82 51.34 51.53 52.32 53.06 55.22 55.77 54.30 52.52 51.98 52.18 52.38 52.30 48.77 41.80 44.40 41.94 47.09 47.68 49.19 47.87 45.16 45.02 44.10 43.50 42.27 38.04 37.18 34.89 29.63 31.92 31.49 32.81 33.38 41.70 42.92
52.92 52.76 52.56 52.38 52.24 51.50 51.19 50.83 50.50 50.79 50.70 50.81 50.42 50.75 50.75 52.17 54.51 54.36 51.00 48.73 44.67 43.35 46.39 42.26 42.60 41.96 42.51 46.57 47.99 45.61 47.51 45.49 44.54 42.15 36.44 41.44 36.41 32.35 37.09 37.47 38.50 35.40 34.73 35.52 39.44 43.39 41.45
52.75 52.66 51.92 51.89 51.80 51.82 51.49 51.02 50.58 50.09 49.99 50.03 49.86 49.59 50.33 51.08 52.16 52.11 49.44 43.42 44.16 44.53 38.54 44.87 44.06 43.95 45.26 46.88 41.03 43.10 47.68 41.68 40.96 36.37 38.98 37.16 33.25 39.11 38.32 37.94 37.27 35.64 36.12 36.38 39.93 42.90 41.17
52.34 52.48 51.86 51.48 51.40 51.09 50.65 50.28 50.27 50.38 50.14 49.41 49.13 49.04 49.76 50.36 51.03 50.32 46.59 44.82 48.55 47.34 38.57 39.68 42.95 41.60 42.66 44.99 41.27 42.18 44.54 42.36 38.30 36.23 37.54 34.75 37.57 40.40 38.78 36.53 37.03 37.49 36.60 37.19 36.69 39.91 41.53
52.22 52.06 52.17 51.60 51.06 50.36 49.83 49.73 49.94 50.19 50.15 49.83 48.92 48.73 49.52 49.50 47.76 48.28 44.51 49.08 50.05 47.77 34.29 35.76 38.66 42.11 44.40 44.78 40.41 46.26 46.50 42.91 39.22 36.80 37.85 37.52 41.03 38.30 38.39 36.75 37.94 33.93 40.80 39.76 37.90 37.49 33.54
51.84 51.79 51.69 50.71 50.57 50.16 49.81 49.44 49.61 49.75 49.59 49.45 49.01 48.81 49.30 48.92 45.52 44.08 46.65 49.08 48.33 44.83 24.94 37.56 39.15 47.75 45.31 41.44 42.34 42.80 47.00 43.41 38.38 38.26 38.52 36.17 37.94 37.48 36.56 37.45 39.76 37.73 41.62 39.89 39.53 37.69 37.86
51.98 51.52 51.21 50.13 49.74 49.68 49.63 49.40 49.31 49.53 49.40 49.28 48.85 48.78 48.92 47.39 46.28 47.79 48.38 47.72 45.03 31.65 23.62 33.76 39.86 38.98 39.48 41.34 41.11 43.84 43.70 44.95 44.05 40.19 38.87 38.57 43.34 41.32 38.72 40.10 39.67 43.69 41.31 40.26 39.18 38.10 32.02
51.82 51.46 50.68 49.86 48.83 49.38 49.13 48.93 49.15 49.37 49.27 48.99 48.76 48.37 47.64 47.46 41.86 49.79 47.73 43.04 31.40 27.17 34.43 32.77 34.59 38.49 38.31 37.47 38.75 40.65 39.60 39.00 35.81 32.77 32.97 35.29 37.06 41.69 42.70 38.58 42.09 41.54 37.58 31.46 30.62 31.36 28.37
52.01 51.07 50.27 49.36 48.87 48.90 48.78 48.89 49.16 49.36 49.09 48.92 48.72 48.12 46.59 46.43 48.13 48.81 44.81 34.69 27.10 31.04 31.38 37.63 37.17 37.47 34.94 37.36 37.07 37.90 36.95 34.48 35.84 33.67 33.99 33.48 31.25 37.40 41.80 39.11 37.66 37.95 36.76 31.88 24.74 27.70 29.63
51.56 50.36 49.92 48.52 48.61 48.80 48.66 48.89 49.22 49.04 48.85 48.83 49.41 46.19 43.78 44.80 47.51 47.63 37.92 30.60 31.80 31.76 35.79 35.55 36.00 33.56 33.44 36.29 36.68 36.49 36.79 35.94 38.20 39.45 33.64 33.48 32.30 39.41 41.68 42.54 41.67 37.78 34.76 37.85 32.38 34.05 32.14
50.56 49.73 49.23 48.13 48.39 48.58 48.68 49.02 49.09 48.99 48.85 49.13 44.31 41.64 39.74 46.46 47.49 43.21 34.48 32.15 33.15 36.82 38.22 37.62 31.28 33.99 31.64 34.18 34.54 35.22 36.04 38.45 38.22 39.93 40.75 37.15 31.86 37.74 40.73 42.67 42.47 39.53 40.41 33.27 35.03 27.27 25.40
49.43 49.39 48.18 47.86 48.29 48.10 48.62 48.98 49.10 48.97 49.01 48.93 42.21 35.84 42.77 49.58 47.48 37.83 32.25 34.37 35.04 39.07 39.59 35.47 33.22 32.78 33.53 33.53 34.72 34.08 34.88 38.56 40.94 40.01 40.46 38.68 37.67 34.48 38.96 37.73 36.36 38.03 36.57 35.77 35.89 32.99 30.35
49.35 49.41 47.40 47.88 47.87 48.32 48.74 48.92 49.01 49.01 48.96 45.85 39.66 32.07 43.58 47.82 34.43 34.98 34.45 35.51 39.09 37.23 40.13 38.28 38.56 35.94 35.06 35.22 34.11 34.52 34.93 37.90 42.17 40.92 37.14 38.70 37.78 32.82 34.28 39.22 39.49 38.93 37.21 35.78 33.84 29.55 30.65
49.18 47.62 47.20 47.60 47.92 48.25 48.54 48.64 48.81 49.02 48.60 43.55 36.45 34.71 44.97 45.46 32.61 34.46 36.52 36.09 37.17 36.84 38.04 38.26 38.39 38.87 37.89 35.24 32.93 36.11 37.72 41.65 42.27 40.85 38.21 39.18 34.83 31.47 32.58 36.33 38.33 37.07 37.23 36.55 35.56 36.26 28.91
48.50 46.80 47.10 47.55 48.02 48.41 48.45 48.59 48.67 48.84 48.42 44.56 38.02 32.48 37.32 38.68 39.35 36.05 34.99 34.15 34.13 39.01 37.99 40.11 39.07 39.43 37.28 36.08 37.92 35.78 37.58 40.95 42.34 41.75 40.85 40.66 34.76 32.06 30.62 31.46 35.29 34.27 36.42 37.63 36.36 35.19 33.38
47.04 46.54 47.18 47.82 48.19 48.32 48.37 48.39 48.46 48.66 48.56 44.53 37.88 34.75 37.03 33.76 35.78 36.61 36.61 34.47 33.98 33.75 39.99 40.13 38.56 38.62 37.10 34.21 35.59 35.79 38.78 39.60 41.60 41.36 40.66 40.29 32.60 32.59 33.53 34.09 35.39 35.04 35.68 36.64 34.84 34.37 33.45
46.34 46.69 47.47 47.92 48.10 48.24 48.35 48.38 48.55 48.42 47.92 42.40 35.91 36.27 38.57 36.44 37.06 36.30 35.21 33.85 34.45 35.05 37.95 37.19 37.74 38.77 39.11 36.61 37.21 35.39 38.40 38.69 37.86 40.95 39.05 39.04 33.58 33.40 31.71 34.12 34.14 33.28 35.41 36.33 36.44 35.11 36.13
46.15 46.94 47.56 48.05 48.00 48.32 48.54 48.64 48.72 48.27 47.11 40.93 42.10 42.72 39.76 34.85 34.81 34.71 34.71 34.74 35.50 37.88 39.45 39.37 40.31 39.88 38.66 38.95 40.97 42.82 42.62 42.27 41.58 39.60 37.50 37.26 35.86 33.76 29.90 32.16 32.37 31.49 33.03 35.08 36.11 37.08 37.43
46.22 47.18 47.93 47.49 47.88 48.31 48.74 48.95 48.65 48.46 47.16 44.65 43.18 41.89 37.63 32.78 33.82 34.09 34.46 36.58 35.71 38.98 37.44 39.24 40.98 40.66 39.84 44.27 44.97 44.39 43.28 42.26 41.98 40.24 40.78 36.29 34.64 33.90 31.12 32.29 27.37 32.94 36.28 36.48 35.69 37.40 39.19
46.41 47.42 47.50 47.63 47.96 48.58 48.98 48.46 48.26 48.94 49.10 47.15 44.54 42.02 39.41 33.95 35.63 34.99 35.04 35.62 38.03 40.21 38.29 38.91 40.36 40.78 43.87 42.20 39.15 35.95 36.19 36.26 37.02 38.47 39.10 40.49 36.89 31.85 31.06 29.75 31.38 32.99 34.39 34.57 34.44 34.89 38.30
46.58 47.59 47.55 47.69 47.89 48.72 48.73 48.28 48.89 49.33 48.57 46.15 44.90 42.34 39.47 36.38 32.87 31.49 34.17 36.50 36.68 36.24 38.57 39.15 42.41 43.99 42.81 40.46 37.35 30.82 29.36 31.62 30.94 34.35 39.32 37.57 38.47 35.42 31.40 26.60 24.87 33.20 36.39 38.28 37.96 32.73 38.57
46.73 47.57 47.43 47.53 48.09 48.71 48.79 48.99 49.98 49.17 47.89 45.64 40.43 41.20 39.13 35.01 33.74 32.69 36.27 36.43 38.17 37.85 37.00 38.98 39.96 40.08 43.60 38.82 34.44 32.21 30.94 32.64 30.07 30.33 32.03 34.19 34.08 31.58 31.48 29.54 32.15 37.36 38.40 38.83 30.07 33.02 40.04
46.55 47.44 47.45 47.50 48.24 48.47 49.07 51.05 50.70 49.22 46.25 43.59 39.39 41.59 40.49 35.24 33.79 34.06 34.58 35.60 38.61 38.07 37.96 39.68 39.60 40.50 39.48 35.84 35.23 33.50 33.13 33.36 32.67 33.17 33.23 33.05 31.58 31.17 32.06 28.64 25.63 38.41 37.31 34.07 37.60 38.66 40.80
46.48 47.48 47.57 47.72 48.81 49.21 51.18 50.51 50.17 48.72 45.94 43.42 39.72 41.23 40.72 37.83 35.17 37.14 37.32 37.47 36.16 35.88 37.88 38.37 38.52 38.80 40.88 38.18 35.71 35.44 33.01 32.86 32.32 30.17 34.00 31.58 35.07 33.90 34.20 34.15 37.14 39.22 39.08 39.39 39.69 40.51 40.55
MSLP
1024.75 1024.22 1023.85 1023.23 1022.85 1022.30 1021.93 1021.20 1020.78 1020.41 1019.85 1019.26 1018.68 1017.95 1017.23 1016.49 1015.98 1015.25 1015.78 1016.07 1016.22 1016.49 1016.56 1016.75 1016.69 1016.85 1017.32 1016.61 1015.58 1015.59 1015.87 1015.98 1015.92 1016.08 1016.07 1016.03 1015.83 1015.67 1015.47 1014.84 1014.76 1014.00 1013.08 1012.39 1011.92 1011.78 1011.41
1024.69 1024.30 1023.92 1023.40 1022.77 1022.36 1021.81 1021.35 1020.94 1020.44 1019.74 1019.12 1018.63 1017.93 1017.18 1016.57 1015.98 1015.42 1015.47 1015.83 1016.01 1016.12 1016.21 1016.51 1016.46 1016.75 1016.96 1016.06 1014.89 1015.55 1015.81 1015.82 1015.76 1015.97 1015.91 1015.87 1015.56 1015.44 1015.37 1015.20 1014.98 1013.67 1012.85 1012.08 1011.81 1011.72 1011.71
1024.78 1024.26 1023.77 1023.35 1022.86 1022.39 1021.83 1021.34 1020.81 1020.33 1019.58 1019.01 1018.34 1017.80 1017.17 1016.55 1015.80 1015.22 1015.21 1015.57 1015.54 1015.83 1015.90 1016.08 1016.23 1016.27 1016.23 1015.03 1014.77 1015.34 1015.78 1015.57 1015.63 1015.84 1015.64 1015.54 1015.61 1015.79 1015.26 1015.06 1014.66 1013.89 1013.17 1012.00 1011.37 1011.48 1011.59
1024.55 1024.10 1023.69 1023.24 1022.61 1022.11 1021.68 1021.18 1020.83 1020.20 1019.64 1019.18 1018.39 1017.59 1017.06 1016.23 1015.39 1014.67 1014.71 1015.12 1015.29 1015.50 1015.70 1015.78 1016.19 1016.04 1015.41 1014.85 1014.46 1015.10 1015.16 1015.13 1015.59 1015.68 1015.61 1015.58 1015.62 1015.46 1015.05 1015.00 1014.51 1013.27 1012.61 1011.65 1010.75 1011.58 1011.48
1024.31 1023.84 1023.54 1023.09 1022.61 1022.17 1021.69 1021.19 1020.73 1020.17 1019.75 1019.04 1018.32 1017.80 1016.69 1016.24 1015.14 1013.93 1014.36 1014.85 1015.13 1015.32 1015.59 1015.74 1016.03 1015.70 1014.89 1014.75 1014.47 1014.63 1014.86 1014.88 1015.19 1015.30 1015.35 1015.36 1015.52 1014.84 1014.72 1014.55 1013.83 1012.78 1011.10 1010.74 1010.35 1009.88 1010.24
1024.12 1023.70 1023.32 1022.95 1022.55 1022.13 1021.64 1021.19 1020.73 1020.15 1019.58 1018.93 1018.22 1017.55 1016.66 1015.62 1014.10 1013.70 1014.34 1014.78 1015.00 1015.22 1015.50 1015.50 1015.78 1016.03 1014.76 1014.19 1014.23 1014.58 1014.75 1015.06 1015.12 1015.02 1014.82 1014.81 1014.62 1014.14 1013.86 1013.41 1011.96 1011.21 1010.59 1010.03 1009.21 1008.51 1008.99
1024.04 1023.57 1023.21 1022.75 1022.30 1021.82 1021.37 1020.89 1020.42 1019.93 1019.34 1018.96 1018.10 1017.49 1016.68 1015.76 1014.35 1014.02 1014.67 1015.10 1015.57 1015.53 1015.03 1013.73 1013.73 1013.66 1013.82 1014.12 1014.49 1014.41 1014.52 1014.90 1014.97 1014.60 1013.90 1013.63 1013.47 1012.92 1012.47 1012.20 1011.16 1010.76 1009.58 1009.12 1007.98 1007.88 1008.14
1023.85 1023.23 1022.79 1022.34 1021.84 1021.36 1020.86 1020.37 1019.88 1019.42 1018.92 1018.37 1018.02 1017.33 1016.60 1015.94 1015.40 1014.85 1014.87 1014.40 1013.89 1013.78 1013.61 1013.28 1013.55 1013.59 1013.78 1013.74 1013.89 1013.93 1014.45 1014.48 1014.02 1013.41 1013.27 1013.16 1012.14 1011.43 1011.94 1011.59 1010.79 1010.44 1008.87 1008.29 1007.85 1007.86 1007.80
1023.54 1023.01 1022.48 1021.84 1021.38 1020.91 1020.57 1020.02 1019.45 1019.04 1018.38 1017.91 1017.58 1017.19 1016.62 1015.71 1015.25 1015.07 1014.78 1014.32 1013.83 1013.69 1013.23 1012.86 1012.95 1013.13 1013.17 1013.48 1013.14 1013.10 1013.91 1013.63 1013.31 1012.97 1012.67 1012.16 1010.99 1011.43 1011.30 1010.84 1010.03 1009.21 1007.90 1007.71 1007.66 1007.90 1007.90
1022.97 1022.40 1021.83 1021.47 1021.12 1020.50 1020.10 1019.55 1019.18 1018.64 1018.09 1017.46 1017.10 1016.80 1016.40 1015.80 1014.88 1014.56 1014.41 1013.54 1013.86 1013.95 1013.33 1012.54 1012.55 1012.33 1012.77 1012.97 1012.77 1012.85 1013.19 1013.29 1013.07 1012.54 1011.96 1011.65 1010.63 1010.68 1010.62 1010.23 1009.55 1008.43 1007.85 1007.44 1007.61 1007.58 1007.14
1022.28 1021.82 1021.34 1020.97 1020.61 1020.25 1019.68 1018.93 1018.68 1018.12 1017.52 1016.98 1016.55 1016.34 1016.09 1016.00 1015.53 1014.79 1014.47 1013.84 1013.98 1013.99 1012.98 1011.88 1012.22 1012.23 1012.13 1012.56 1012.33 1012.61 1012.94 1013.08 1012.45 1012.02 1012.10 1010.86 1010.38 1010.15 1009.87 1009.42 1009.24 1008.12 1008.02 1007.62 1007.20 1006.72 1006.20
1021.74 1021.35 1020.88 1020.47 1020.09 1019.73 1019.17 1018.56 1018.13 1017.41 1016.83 1016.39 1016.02 1015.75 1015.71 1015.28 1015.23 1014.61 1014.48 1014.37 1014.49 1013.96 1011.89 1011.45 1011.81 1011.79 1012.04 1012.06 1011.94 1012.28 1012.50 1012.84 1012.25 1011.93 1011.86 1011.28 1010.73 1010.22 1010.03 1009.66 1009.17 1007.74 1007.44 1007.29 1007.18 1006.73 1006.77
1021.27 1020.82 1020.42 1020.04 1019.53 1019.07 1018.50 1018.11 1017.40 1016.73 1016.12 1015.76 1015.44 1015.30 1015.38 1015.22 1014.27 1014.25 1014.66 1014.67 1014.18 1012.37 1011.15 1011.16 1011.12 1011.18 1011.16 1011.24 1011.37 1011.55 1011.76 1011.94 1012.01 1011.90 1011.57 1011.24 1010.67 1009.94 1009.63 1009.11 1008.47 1007.72 1006.99 1006.64 1006.09 1005.55 1006.79
1020.82 1020.56 1019.95 1019.54 1018.95 1018.46 1018.09 1017.50 1016.79 1016.07 1015.51 1015.01 1014.54 1014.34 1014.13 1014.02 1013.77 1014.34 1014.71 1014.48 1012.77 1010.95 1010.37 1010.40 1010.49 1010.69 1010.64 1010.73 1010.72 1010.84 1011.07 1011.44 1011.87 1011.63 1011.17 1010.83 1010.77 1010.40 1009.76 1009.31 1008.55 1007.83 1007.30 1006.21 1005.83 1005.78 1006.53
1020.35 1020.21 1019.72 1019.10 1018.38 1018.04 1017.70 1017.01 1016.20 1015.51 1014.92 1014.15 1013.22 1012.32 1011.96 1011.96 1012.86 1013.85 1014.22 1013.15 1011.39 1010.45 1010.08 1010.06 1010.42 1010.20 1010.31 1010.54 1010.35 1010.40 1010.35 1010.50 1010.50 1010.58 1010.32 1010.28 1010.68 1010.56 1009.91 1009.47 1009.19 1008.34 1007.72 1007.39 1006.26 1006.49 1006.35
1019.80 1019.96 1019.43 1018.58 1017.98 1017.69 1017.22 1016.49 1015.75 1015.05 1014.37 1013.48 1012.63 1011.52 1011.10 1010.60 1011.94 1013.12 1013.60 1012.31 1011.23 1010.64 1010.24 1010.10 1009.65 1009.78 1009.70 1009.92 1009.88 1009.83 1009.80 1010.17 1010.17 1010.20 1009.97 1009.79 1010.17 1010.42 1009.80 1009.38 1009.11 1008.53 1008.33 1007.70 1006.86 1006.29 1006.41
1019.67 1019.54 1018.84 1018.26 1017.77 1017.36 1016.74 1016.07 1015.40 1014.69 1013.92 1013.07 1012.37 1011.99 1011.52 1011.24 1012.15 1013.03 1012.74 1012.36 1011.52 1010.91 1010.50 1010.18 1009.69 1009.63 1009.70 1009.63 1009.69 1009.59 1009.84 1010.01 1009.89 1009.84 1009.75 1009.48 1009.09 1010.40 1009.71 1009.47 1008.98 1008.14 1007.70 1007.50 1007.23 1006.93 1006.08
1019.42 1018.95 1018.45 1018.03 1017.59 1017.16 1016.44 1015.88 1015.11 1014.45 1013.67 1013.11 1012.86 1012.50 1012.40 1012.12 1012.80 1013.12 1012.43 1012.34 1011.84 1011.42 1010.83 1010.31 1009.84 1009.64 1009.53 1009.70 1009.63 1009.59 1009.75 1010.09 1010.05 1009.77 1009.47 1009.92 1009.70 1010.06 1009.97 1009.89 1009.77 1009.16 1008.28 1007.50 1006.66 1007.33 1007.23
1019.20 1018.76 1018.39 1017.83 1017.42 1016.96 1016.32 1015.70 1014.92 1014.38 1013.83 1013.53 1013.12 1012.99 1012.36 1012.40 1012.87 1012.87 1012.98 1012.84 1012.64 1012.01 1011.24 1010.31 1009.65 1009.63 1009.87 1009.65 1009.71 1009.92 1010.01 1010.43 1010.24 1010.01 1009.90 1009.71 1010.06 1010.17 1009.85 1009.97 1009.89 1009.41 1009.12 1008.59 1007.78 1007.40 1007.75
1018.78 1018.66 1018.18 1017.65 1017.23 1016.74 1016.10 1015.46 1014.87 1014.53 1014.14 1013.89 1013.70 1013.55 1013.71 1013.58 1013.15 1012.90 1013.15 1013.28 1012.91 1012.27 1011.55 1010.36 1009.87 1009.74 1009.57 1009.55 1009.70 1010.08 1010.15 1010.44 1010.46 1010.39 1010.40 1010.28 1010.63 1010.57 1010.56 1010.80 1010.71 1009.98 1009.48 1008.90 1008.47 1008.15 1008.05
1018.71 1018.39 1017.86 1017.46 1017.06 1016.49 1015.92 1015.28 1014.86 1014.52 1014.25 1014.20 1014.16 1014.16 1014.11 1013.84 1013.72 1013.55 1013.58 1013.54 1013.04 1012.13 1011.22 1010.44 1009.97 1009.61 1009.38 1009.50 1009.77 1010.05 1010.28 1010.34 1010.43 1010.51 1010.58 1010.56 1011.44 1011.83 1011.78 1011.56 1011.08 1010.59 1010.22 1009.78 1009.46 1009.35 1008.81
1018.75 1018.05 1017.70 1017.20 1016.75 1016.23 1015.75 1015.25 1014.88 1014.50 1014.33 1014.46 1014.72 1014.36 1014.02 1014.14 1014.13 1013.95 1013.89 1013.50 1012.94 1012.27 1011.12 1010.54 1010.00 1009.92 1009.62 1009.42 1009.62 1009.81 1010.03 1010.21 1010.28 1010.36 1010.44 1010.93 1011.73 1012.16 1012.26 1012.06 1011.61 1011.13 1010.89 1010.60 1010.34 1010.12 1009.98
1018.64 1017.82 1017.43 1016.96 1016.36 1015.96 1015.46 1015.10 1014.83 1014.62 1014.73 1014.97 1014.89 1014.73 1014.55 1014.60 1014.36 1014.15 1013.89 1013.38 1012.61 1012.17 1011.38 1010.94 1010.38 1010.03 1010.08 1010.36 1010.23 1010.17 1010.29 1010.45 1010.61 1010.63 1010.66 1010.91 1011.37 1011.69 1011.79 1011.85 1011.46 1011.48 1011.64 1011.24 1011.13 1011.11 1010.82
1018.40 1017.60 1017.14 1016.66 1016.11 1015.72 1015.20 1014.83 1014.58 1014.53 1014.67 1015.09 1014.95 1014.95 1014.63 1014.61 1014.44 1014.17 1013.84 1013.26 1012.89 1012.15 1011.58 1011.37 1011.05 1010.46 1011.36 1011.04 1010.80 1010.81 1010.90 1011.09 1011.11 1011.24 1011.18 1011.22 1011.53 1011.92 1012.03 1011.36 1011.40 1011.96 1011.89 1011.69 1011.56 1011.39 1011.32
1018.23 1017.48 1017.04 1016.49 1015.94 1015.39 1014.81 1014.56 1014.30 1014.10 1014.01 1014.33 1014.72 1014.85 1014.59 1014.69 1014.78 1014.56 1013.98 1013.52 1013.21 1012.65 1012.48 1012.29 1012.09 1012.09 1011.78 1011.31 1011.07 1011.24 1011.48 1011.48 1011.83 1012.12 1011.85 1011.68 1011.89 1012.35 1012.20 1011.96 1011.97 1011.81 1012.10 1012.05 1011.86 1011.59 1011.70
1017.94 1017.30 1016.72 1016.19 1015.63 1015.03 1014.41 1014.12 1013.80 1013.58 1013.58 1014.03 1014.62 1014.87 1014.79 1014.60 1015.43 1015.47 1014.67 1014.09 1013.45 1013.46 1013.10 1012.99 1012.74 1012.51 1012.20 1011.67 1011.56 1011.61 1011.90 1012.38 1012.59 1012.78 1012.65 1012.40 1012.13 1012.20 1012.41 1012.08 1011.62 1011.73 1012.14 1012.30 1012.42 1011.87 1012.31
1017.74 1017.27 1016.68 1016.08 1015.34 1014.47 1013.69 1013.25 1012.97 1013.06 1013.54 1014.02 1014.90 1015.03 1014.86 1014.98 1016.13 1016.11 1015.36 1014.76 1014.36 1014.25 1013.83 1013.45 1013.23 1012.89 1012.45 1012.27 1012.18 1012.33 1012.66 1013.24 1012.91 1012.94 1013.10 1012.93 1012.91 1012.74 1012.61 1012.40 1011.98 1011.97 1012.37 1012.68 1012.65 1012.69 1012.52
1017.37 1016.95 1016.38 1015.77 1015.13 1014.11 1013.09 1012.14 1012.05 1012.95 1013.51 1014.04 1015.09 1015.08 1014.96 1015.31 1016.38 1016.35 1016.01 1015.51 1014.98 1014.81 1014.14 1014.27 1014.05 1013.48 1013.65 1013.43 1013.02 1013.03 1012.97 1013.44 1013.43 1013.52 1013.39 1012.98 1012.81 1012.75 1012.80 1012.61 1012.22 1012.41 1013.05 1013.01 1012.88 1013.12 1013.26
1017.15 1016.57 1016.36 1015.71 1014.80 1014.08 1012.67 1012.17 1012.27 1013.14 1013.72 1013.96 1014.71 1015.31 1015.35 1015.27 1016.38 1016.69 1016.54 1016.41 1016.23 1016.07 1015.58 1014.85 1014.34 1013.87 1013.76 1013.72 1013.84 1013.71 1013.54 1013.85 1013.71 1013.45 1013.96 1013.53 1013.01 1012.79 1012.78 1012.34 1012.50 1012.76 1012.87 1013.13 1013.32 1013.31 1013.67
Wind_Speed
18 19 20 21 20 21 21 21 21 22 21 23 25 25 24 21 23 13 11 7 6 8 6 8 4 6 4 3 8 2 5 3 2 3 5 6 9 10 12 9 11 20 20 18 21 21 20
20 18 19 21 20 20 21 23 23 22 23 22 24 24 23 24 19 13 11 7 7 4 4 5 1 9 3 7 2 4 3 2 6 7 7 6 7 7 10 10 13 10 13 21 20 18 18
19 20 19 21 21 21 21 21 22 23 23 24 22 24 25 26 27 21 13 8 5 4 4 4 5 5 5 11 4 4 4 6 7 9 10 8 8 8 2 9 11 17 17 15 19 19 12
19 19 20 20 21 21 23 21 22 24 23 23 23 25 24 29 32 27 13 8 6 4 4 6 5 4 7 2 2 7 9 7 7 8 9 8 8 12 15 2 7 11 11 10 5 13 16
18 21 20 20 21 20 21 22 22 22 23 23 24 27 26 30 31 11 11 6 3 5 5 5 4 4 6 2 3 3 5 8 7 9 8 8 5 8 4 3 6 7 5 11 6 15 15
20 22 20 21 20 21 20 21 21 22 22 23 25 26 27 28 35 11 9 5 2 3 5 4 2 3 4 3 4 3 2 5 7 6 8 9 7 5 4 6 5 5 7 6 11 11 18
21 21 22 20 21 20 20 20 21 21 20 20 24 25 26 27 23 12 8 5 4 4 9 9 9 3 4 5 2 5 4 5 6 5 5 7 7 9 9 9 13 12 9 10 8 9 13
21 21 23 22 22 22 22 21 21 22 20 19 21 24 25 25 23 5 1 3 4 3 6 16 6 7 3 4 4 6 5 6 5 5 4 5 10 7 3 10 9 13 13 6 3 10 3
23 23 22 23 21 23 23 25 24 26 23 20 19 22 23 26 19 2 3 4 2 2 5 4 7 6 4 8 4 5 9 3 5 6 8 6 9 5 6 6 10 16 12 8 5 8 3
21 23 23 23 24 24 21 24 24 24 24 22 19 20 20 24 10 2 4 7 5 2 3 6 7 6 6 4 4 4 8 3 6 4 4 7 3 6 8 3 4 8 8 8 7 8 3
20 21 23 22 25 25 23 25 22 25 22 22 20 19 18 16 11 5 4 2 3 3 4 8 6 5 6 6 3 7 4 5 6 3 4 1 2 6 7 2 3 3 12 10 8 4 1
20 21 21 22 23 24 25 24 23 25 23 23 21 20 18 9 6 4 2 2 2 4 6 6 6 7 6 6 4 4 5 3 3 4 2 5 5 3 3 1 7 7 9 7 4 4 3
20 20 22 23 23 24 23 23 24 26 24 22 22 19 16 11 4 7 1 3 4 5 2 7 5 7 7 6 5 6 4 4 2 3 3 2 4 4 2 3 3 8 5 2 2 4 4
18 21 22 23 24 23 25 24 27 26 25 23 21 21 14 12 7 7 4 3 7 3 3 4 5 9 5 6 3 4 4 1 5 2 0 2 3 7 6 4 3 4 5 5 3 3 5
14 17 24 23 23 23 24 26 27 26 25 25 27 8 8 12 12 8 5 4 2 1 4 7 8 7 4 4 2 4 2 1 2 3 2 2 4 6 4 3 2 2 1 6 3 5 5
10 18 23 22 22 23 25 26 26 26 25 26 7 7 6 9 16 11 3 1 2 1 4 8 2 2 6 6 4 2 1 2 2 2 3 2 4 7 3 4 3 2 3 2 2 3 5
13 17 21 22 22 22 25 26 25 25 25 21 4 4 7 15 10 4 2 3 2 2 4 3 2 4 2 4 1 2 3 3 4 3 1 1 3 5 4 6 8 4 1 2 3 4 2
12 17 20 22 21 23 25 25 25 24 25 4 3 2 5 3 4 1 3 4 4 5 3 3 1 3 4 3 3 2 3 3 5 4 4 4 5 3 3 2 4 5 7 5 3 4 4
14 18 20 21 21 24 24 23 23 23 19 4 6 3 5 4 3 2 3 4 3 1 3 3 1 0 1 3 4 2 3 3 5 3 3 3 4 3 1 2 2 3 4 4 3 2 5
15 19 20 21 22 23 22 21 21 20 11 4 4 3 3 4 3 5 4 3 2 5 6 2 2 2 3 4 6 4 4 4 3 4 6 1 4 4 3 4 4 2 5 7 6 4 6
16 18 19 21 22 22 20 20 20 18 13 3 4 4 3 2 4 5 3 1 3 3 6 2 2 2 4 4 4 4 3 3 3 5 2 1 5 4 6 5 2 3 5 8 8 5 5
16 18 19 21 19 20 20 20 18 16 11 2 3 3 2 2 5 5 1 0 2 4 3 3 1 5 2 4 2 5 5 1 1 3 3 3 5 4 3 4 5 3 5 5 5 3 5
16 18 19 20 21 22 21 19 16 11 4 1 1 2 2 2 2 2 3 3 2 3 3 4 1 5 9 5 4 7 5 6 4 1 4 4 3 1 2 4 2 5 4 2 3 1 1
16 18 19 20 21 21 21 18 12 10 2 1 1 1 2 2 1 1 2 7 2 4 2 5 4 2 3 10 13 12 13 10 10 9 5 4 4 3 2 5 3 3 2 3 3 4 4
16 18 18 19 20 22 21 14 16 13 9 4 1 2 1 2 1 1 1 3 2 5 5 3 5 3 6 2 5 5 2 2 6 8 7 3 3 3 1 0 2 3 3 2 2 2 1
15 18 18 19 21 21 18 17 16 15 4 3 2 1 1 2 3 2 2 1 3 2 1 3 4 2 3 2 2 2 2 2 3 3 5 5 5 2 1 1 3 4 2 2 2 3 2
16 17 18 20 21 21 20 20 16 6 10 3 2 0 0 3 2 2 0 3 3 2 3 3 2 2 3 2 2 1 3 2 3 5 4 3 2 3 3 3 3 3 3 2 2 4 4
16 18 18 21 22 22 23 19 7 13 13 3 3 2 1 3 2 1 2 0 2 1 1 5 3 1 3 2 1 1 1 2 2 2 4 5 5 4 4 4 4 5 5 4 4 3 3
15 17 18 21 21 22 21 8 11 18 11 4 3 2 3 3 4 0 2 2 2 1 2 1 3 2 2 3 1 2 2 3 2 3 2 5 3 1 5 1 3 4 1 1 1 1 3
Wind_Direction
358 358 354 350 351 350 350 349 352 349 347 346 337 338 339 339 354 214 214 219 255 271 287 292 286 110 150 200 254 223 301 331 163 175 248 254 252 253 258 269 273 243 257 260 251 254 251
359 358 354 347 354 353 351 350 352 348 342 344 340 337 342 336 337 296 211 215 251 257 275 286 260 138 184 247 67 207 198 265 238 228 245 240 256 266 284 274 262 270 274 255 247 251 244
357 352 352 351 351 353 351 351 348 344 344 338 345 342 333 333 330 321 206 211 224 252 267 237 210 188 207 247 149 175 231 257 239 233 253 255 257 248 283 278 260 264 245 256 233 239 243
355 352 351 346 348 350 343 345 344 341 340 345 344 344 338 338 332 313 185 199 219 216 232 220 208 167 250 217 193 242 246 246 234 227 240 265 249 258 254 283 287 259 233 246 152 200 248
350 348 349 346 342 342 340 342 341 337 342 344 345 342 335 333 325 246 169 179 216 234 216 187 182 205 251 163 199 235 233 254 238 231 234 247 228 239 192 218 235 217 235 227 290 245 209
343 341 341 337 336 335 337 336 340 337 339 341 342 344 341 336 333 160 134 78 274 167 186 166 125 214 216 202 148 181 171 224 225 234 238 224 225 236 224 219 231 187 207 254 236 183 200
335 335 333 334 328 329 328 329 328 331 337 339 341 341 341 342 346 134 116 121 132 158 221 196 197 195 131 107 150 198 169 187 206 225 225 201 241 241 250 253 268 291 212 228 192 159 173
334 329 334 327 325 328 331 329 328 326 328 333 335 335 336 338 346 88 40 211 251 17 232 224 220 238 244 147 226 203 187 219 200 243 229 234 246 267 276 265 221 246 212 179 128 134 178
331 329 328 326 330 326 329 329 329 325 323 325 329 330 333 333 332 265 221 238 320 259 254 182 194 200 211 170 228 197 191 210 238 240 219 246 295 188 223 279 203 212 197 133 111 131 110
323 326 323 330 329 332 325 320 329 326 322 320 321 325 329 335 308 291 233 233 212 256 270 169 189 182 135 192 230 160 204 234 205 254 237 248 260 222 232 231 272 181 168 156 164 193 149
322 328 326 330 329 324 321 322 330 324 320 313 318 320 324 337 297 250 325 358 120 249 241 133 136 138 135 212 105 200 175 181 253 202 246 317 254 236 250 291 272 121 162 216 237 255 175
314 325 324 327 329 327 320 324 326 320 321 321 319 318 319 316 296 268 299 117 208 203 231 157 135 174 159 200 191 137 207 222 278 266 244 296 331 298 233 98 236 158 149 173 204 230 101
309 321 327 327 331 328 323 328 321 319 323 322 315 316 314 290 252 138 88 184 196 233 135 158 171 165 195 165 192 198 202 191 284 246 167 318 318 285 287 64 105 171 170 168 145 52 48
311 326 326 328 327 328 334 327 324 324 327 318 312 309 261 259 237 181 159 206 216 119 171 118 149 136 193 161 189 194 176 179 219 170 333 7 85 349 348 28 115 33 341 324 91 99 86
312 330 325 325 328 337 333 328 327 329 325 320 316 270 258 234 216 180 159 215 14 135 132 133 141 149 156 174 212 194 184 86 22 206 341 151 47 323 24 357 328 127 340 342 85 62 101
349 338 320 324 334 340 333 331 331 331 329 327 307 305 272 221 169 145 169 211 15 31 104 157 138 204 160 165 181 211 53 43 44 26 266 104 103 9 328 275 166 351 1 207 248 129 101
356 321 320 330 340 339 332 333 334 334 333 338 286 329 2 121 123 102 170 61 317 39 48 259 126 135 163 145 115 83 65 39 5 28 58 338 7 342 304 25 359 360 56 94 108 356 90
331 314 335 333 340 336 332 335 335 335 341 355 295 339 322 139 86 216 112 106 360 8 336 304 234 95 167 147 103 98 105 45 352 341 32 28 82 60 14 4 314 303 336 322 332 101 37
326 340 336 336 338 335 336 339 337 343 2 325 339 357 354 3 117 115 77 67 37 309 274 274 193 260 160 126 121 102 94 28 21 37 22 10 38 116 39 172 196 3 8 357 10 58 38
339 342 334 338 339 337 341 339 339 346 11 349 350 37 52 17 333 115 86 64 0 285 264 265 66 120 139 81 50 118 102 38 23 73 39 108 53 360 47 32 335 358 9 8 12 43 79
352 339 334 338 340 341 342 340 342 346 355 4 3 30 332 77 57 89 77 18 182 287 226 72 180 167 134 103 91 106 101 112 59 6 110 105 92 65 55 28 328 18 30 33 47 35 54
348 334 338 335 339 340 339 342 341 345 2 33 360 355 57 60 125 107 34 56 190 282 288 194 150 134 102 106 15 154 128 103 17 42 50 54 124 157 119 15 14 61 58 82 45 45 74
342 332 336 336 341 342 341 337 334 340 50 18 215 286 308 4 68 155 172 198 84 277 82 26 203 127 79 49 75 89 63 74 80 26 62 34 121 352 65 349 270 126 21 70 76 320 337
334 333 337 341 340 339 336 335 340 328 295 165 247 252 264 66 284 245 220 228 20 358 66 15 4 82 59 119 105 89 81 81 66 47 22 93 69 20 12 310 62 71 11 13 274 265 209
330 333 342 336 338 337 335 343 333 321 304 213 140 204 249 90 289 127 10 181 181 42 45 18 16 15 137 345 109 116 87 114 38 35 23 32 101 82 27 340 339 148 189 224 236 160 241
331 333 335 338 337 334 335 331 323 323 105 104 113 96 270 251 67 330 276 250 114 100 89 51 33 6 282 52 83 115 121 99 122 101 29 47 56 29 83 247 218 76 141 196 243 201 149
328 334 337 338 335 335 333 327 310 288 152 106 100 198 145 108 71 290 350 78 79 124 78 57 43 340 359 22 76 84 110 340 154 159 163 158 154 213 195 268 265 175 122 115 229 78 147
329 334 338 340 337 337 337 331 134 141 132 96 77 4 292 89 80 273 343 192 152 316 173 137 170 98 89 34 290 119 172 127 188 118 178 194 179 195 200 239 267 145 137 223 49 100 167
325 335 343 342 341 344 353 82 129 140 112 104 104 62 43 62 84 113 84 86 52 324 307 70 16 108 114 131 185 161 156 174 185 197 187 215 237 223 232 248 61 188 305 113 175 174 196